This demonstration page uses our WeatherBlox Daily Observations layout. Learn more.

Left ArrowRight Arrow

Hourly Observations for July 11, 2015

Temp ( °F °C ) Dew Point ( °F °C ) Humidity (%) Winds ( mph kmh ) Pressure ( in mb ) Visibility ( mi km ) Precip ( " mm )
12:03 am 00:03 Mostly Cloudy with Fog 63 17.2 63 17.2 100 100 N N/A 30.12 1020 1 1 N/A
12:31 am 00:31 Mostly Cloudy with Mist and Fog 63 17.2 62 16.7 97 97 N N/A 30.12 1020 1 2 N/A
12:50 am 00:50 Mostly Cloudy with Fog 63 17 63 17 100 100 N N/A 30.12 1020 0 0 N/A
12:53 am 00:53 Mostly Cloudy with Fog 63 17.2 63 17.2 100 100 N N/A 30.13 1020 0 0 N/A
1:53 am 01:53 Mostly Cloudy with Fog 64 17.8 64 17.8 100 100 N N/A 30.12 1020 0 0 N/A
2:53 am 02:53 Mostly Cloudy with Fog 63 17.2 63 17.2 100 100 N N/A 30.12 1020 0 0 N/A
3:53 am 03:53 Cloudy with Fog 63 17.2 62 16.7 97 97 N N/A 30.14 1021 1 1 N/A
4:03 am 04:03 Cloudy with Mist and Fog 62 16.7 62 16.7 100 100 N N/A 30.12 1020 1 1 N/A
4:22 am 04:22 Mostly Cloudy with Mist and Fog 62 16.7 61 16.1 96 96 N N/A 30.12 1020 2 2 N/A
4:24 am 04:24 Mostly Cloudy with Mist and Fog 62 16.7 61 16.1 96 96 SW 3 6 30.12 1020 2 3 N/A
4:34 am 04:34 Cloudy with Mist and Fog 62 16.7 62 16.7 100 100 N N/A 30.12 1020 4 6 N/A
4:53 am 04:53 Partly Cloudy with Mist and Fog 62 16.7 62 16.7 100 100 N N/A 30.14 1021 5 8 N/A
5:07 am 05:07 Partly Cloudy with Mist and Fog 61 16.1 61 16.1 100 100 N N/A 30.12 1020 2 3 N/A
5:18 am 05:18 Partly Cloudy with Mist and Fog 61 16.1 61 16.1 100 100 N N/A 30.12 1020 2 3 N/A
5:25 am 05:25 Mostly Cloudy with Mist and Fog 61 16.1 60 15.6 97 97 N N/A 30.12 1020 1 2 N/A
5:37 am 05:37 Mostly Cloudy with Fog 61 16.1 60 15.6 97 97 N N/A 30.12 1020 1 1 N/A
5:53 am 05:53 Mostly Cloudy with Fog 61 16.1 60 15.6 97 97 N N/A 30.15 1021 0 0 N/A
6:31 am 06:31 Cloudy with Mist and Fog 61 16.1 61 16.1 100 100 N N/A 30.15 1021 1 1 N/A
6:35 am 06:35 Mostly Cloudy with Mist and Fog 61 16.1 61 16.1 100 100 N N/A 30.15 1021 2 3 N/A
6:43 am 06:43 Partly Cloudy with Mist and Fog 61 16.1 61 16.1 100 100 N N/A 30.15 1021 3 4 N/A
6:53 am 06:53 Partly Cloudy with Mist and Fog 61 16.1 60 15.6 97 97 N N/A 30.17 1022 2 3 N/A
6:57 am 06:57 Partly Cloudy with Mist and Fog 61 16.1 61 16.1 100 100 N N/A 30.15 1021 2 2 N/A
7:13 am 07:13 Mostly Cloudy with Mist and Fog 62 16.7 62 16.7 100 100 N N/A 30.15 1021 2 3 N/A
7:22 am 07:22 Mostly Cloudy with Mist and Fog 63 17.2 62 16.7 97 97 N N/A 30.15 1021 5 8 N/A
7:53 am 07:53 Cloudy with Mist and Fog 64 17.8 64 17.8 100 100 W 3 6 30.19 1022 5 8 N/A
8:08 am 08:08 Cloudy with Mist and Fog 65 18.3 64 17.8 97 97 N N/A 30.18 1022 6 10 N/A
8:53 am 08:53 Partly Cloudy with Mist and Fog 66 18.9 65 18.3 96 96 N N/A 30.19 1022 6 10 N/A
9:53 am 09:53 Sunny 70 21.1 66 18.9 87 87 N N/A 30.19 1022 7 11 N/A
10:08 am 10:08 Mostly Sunny 73 22.8 68 20 84 84 N N/A 30.18 1022 8 13 N/A
10:53 am 10:53 Sunny 74 23.3 66 18.9 76 76 N N/A 30.19 1023 10 16 N/A
11:53 am 11:53 Sunny 77 25 62 16.7 60 60 N N/A 30.19 1023 10 16 N/A
12:53 pm 12:53 Sunny 77 25 63 17.2 62 62 E 3 6 30.19 1022 10 16 N/A
1:53 pm 13:53 Sunny 79 26.1 64 17.8 60 60 N N/A 30.18 1022 10 16 N/A
2:53 pm 14:53 Mostly Sunny 79 26.1 64 17.8 60 60 VRB 3 6 30.17 1022 10 16 N/A
3:53 pm 15:53 Mostly Cloudy 79 26.1 63 17.2 58 58 W 3 6 30.16 1021 10 16 N/A
4:53 pm 16:53 Sunny 81 27.2 65 18.3 58 58 VRB 5 7 30.14 1021 10 16 N/A
5:53 pm 17:53 Sunny 81 27.2 65 18.3 58 58 N N/A 30.12 1020 10 16 N/A
6:53 pm 18:53 Sunny 78 25.6 64 17.8 62 62 W 3 6 30.12 1020 10 16 N/A
7:53 pm 19:53 Sunny 78 25.6 65 18.3 64 64 N N/A 30.11 1020 10 16 N/A
8:53 pm 20:53 Sunny 71 21.7 68 20 90 90 N N/A 30.10 1019 10 16 N/A
9:53 pm 21:53 Clear 69 20.6 66 18.9 90 90 N N/A 30.10 1019 9 14 N/A
10:53 pm 22:53 Clear 70 21.1 66 18.9 87 87 N N/A 30.10 1019 10 16 N/A
11:53 pm 23:53 Mostly Clear 70 21.1 66 18.9 87 87 N N/A 30.08 1019 10 16 N/A

Powered by AerisWeather